Weather in Manado

Indonesia     1°29′33″N   124°51′53″E
temp.,
°C
wind,
m/s
gust,
m/s
humid.,
%
clouds,
%
prec.,
mm/h
press.,
hPa
HPBL,
m
16 april, fri
fri1623:00+25s338387 0.9 1011258
02:00+25ssw2282100 1.1 1010187
05:00+25sw2284100 2.4 1010147
08:00+26s0177100 3.4 1012254
11:00+28nw226892 0.2 1010677
14:00+28wnw337193 0.7 1008523
17:00+27w2275100 0.7 1008318
20:00+26sse1179100 1.7 1011135
17 april, sat
sat1723:00+26ssw2281100 0.2 1011136
02:00+25sw348298 0.5 1009323
05:00+25ssw238099 0.0 1009241
08:00+27nnw116825 0.0 1011329
11:00+28wnw3371100 0.3 1010579
14:00+29wnw336961 1.4 1008733
17:00+27w2377100 1.3 1009266
20:00+26ssw2282100 3.3 1011172
18 april, sun
sun1823:00+26sw3583100 0.8 1011475
02:00+25ssw3586100 0.8 1009334
05:00+25ssw3387100 1.6 1010173
08:00+26sw2380100 4.9 1011291
11:00+28w357144 0.8 1010731
14:00+29w566998 0.9 1007848
17:00+27w357886 0.9 1008421
20:00+26ssw2381100 1.3 1010292
19 april, mon
mon1923:00+25se2181100 0.3 101092
02:00+25sse118096 0.7 1008119
05:00+25sse1182100 0.8 100960
08:00+27e017195 0.8 1010202
11:00+29nnw326824 0.0 1009645
14:00+29nnw226886 0.5 1007678
17:00+28nnw1172100 0.3 1008387
20:00+26sse2280100 1.8 101096
20 april, tue
tue2023:00+26se2280100 0.0 1010104
02:00+26ese1177100 0.0 1007114
05:00+25sse1178100 0.0 1008131
08:00+28ese0169100 0.0 1010285
11:00+29nnw3265100 0.0 1009560
14:00+29n3271100 0.4 1008686
17:00+28n2274100 0.4 1009438
20:00+26ese2281100 0.6 1010213